Location: Bucharest
(44.4268°N, 26.1025°E)
Time: 00:20:07
(UTC+03:00)

CUBESAT XI-V - Pass Details

Date: 28 June 2022
Orbit: 667 x 690 km, 98.1° (Epoch: 07 August)

Event Time Altitude Azimuth Distance (km) Brightness Sun altitude
Exits shadow 02:31:47 23° 137° (SE) 1,427 ? -20.3°
Maximum altitude 02:34:24 50° 72° (ENE) 860 ? -20.1°
Drops below altitude 10° 02:38:52 10° 357° (N) 2,112 ? -19.9°
Sets 02:41:08 0° 352° (N) 3,028 ? -19.7°
